Weather History for Clinton, IA

Change the Weather History Date:

Friday, March 15, 2013

  Actual Average Record
Temperature  
Mean Temperature 34 °F -  
Max Temperature 42 °F 47 °F 80 °F (2012)
Min Temperature 26 °F 28 °F 5 °F (1979)
Degree Days  
Heating Degree Days 31    
Moisture  
Dew Point 29 °F    
Average Humidity 82    
Maximum Humidity 93    
Minimum Humidity 61    
Precipitation  
Precipitation 0.00 in - - ()
Sea Level Pressure  
Sea Level Pressure 29.90 in    
Wind  
Wind Speed 4 mph (East)    
Max Wind Speed 15 mph    
Max Gust Speed -    
Visibility 5 miles    
Events      
Averages and records for this station are not official NWS values.
T = Trace of Precipitation, MM = Missing Value Source: NWS Daily Summary

Daily Weather History Graph

Daily Weather History Graph

Search for Another Location

Airport:

Trip Planner

Search our weather history database for the weather conditions in past years. The results will help you decide how hot, cold, wet, or windy it might be!

Date:

Astronomy

Mar. 15, 2013 Rise Set
Actual Time 7:12 AM CDT 7:08 PM CDT
Civil Twilight 6:44 AM CDT 7:35 PM CDT
Nautical Twilight 6:12 AM CDT 8:08 PM CDT
Astronomical Twilight 5:39 AM CDT 8:41 PM CDT
Moon 8:59 AM CDT (3/15) 11:26 PM CDT (3/15)
Length of Visible Light 12h 50m
Length of Day
11h 55m
Waxing Crescent, 15% of the Moon is Illuminated
Mar 15
Waxing Crescent
Mar 19
First Quarter
Mar 27
Full
Apr 2
Last Quarter
Apr 10
New

Hourly Weather History & Observations

Time (CDT) Temp. Windchill Dew Point Humidity Pressure Visibility Wind Dir Wind Speed Gust Speed Precip Events Conditions
12:15 AM 30.2 °F - 26.6 °F 86% 30.08 in 9.0 mi Calm Calm - N/A   Clear
12:35 AM 30.2 °F - 26.6 °F 86% 30.08 in 10.0 mi Calm Calm - N/A   Clear
12:55 AM 28.4 °F - 26.6 °F 93% 30.07 in 10.0 mi Calm Calm - N/A   Clear
1:15 AM 28.4 °F 24.6 °F 24.8 °F 86% 30.06 in 9.0 mi SSE 3.5 mph - N/A   Clear
1:35 AM 30.2 °F 24.3 °F 26.6 °F 86% 30.05 in 7.0 mi SSE 5.8 mph - N/A   Clear
2:15 AM 28.4 °F 22.2 °F 24.8 °F 86% 30.03 in 7.0 mi SSE 5.8 mph - N/A   Clear
2:35 AM 26.6 °F 21.2 °F 24.8 °F 93% 30.03 in 5.0 mi South 4.6 mph - N/A   Clear
2:55 AM 28.4 °F - 24.8 °F 86% 30.03 in 5.0 mi Calm Calm - N/A   Clear
3:15 AM 28.4 °F - 26.6 °F 93% 30.02 in 4.0 mi Calm Calm - N/A   Clear
3:35 AM 26.6 °F - 23.0 °F 86% 30.01 in 4.0 mi Calm Calm - N/A   Clear
3:55 AM 26.6 °F - 24.8 °F 93% 30.00 in 5.0 mi Calm Calm - N/A   Clear
4:15 AM 28.4 °F - 24.8 °F 86% 29.99 in 5.0 mi Calm Calm - N/A   Clear
4:35 AM 28.4 °F - 24.8 °F 86% 29.98 in 5.0 mi Calm Calm - N/A   Clear
4:55 AM 28.4 °F - 24.8 °F 86% 29.98 in 4.0 mi Calm Calm - N/A   Clear
5:15 AM 28.4 °F 24.6 °F 24.8 °F 86% 29.98 in 3.0 mi WSW 3.5 mph - N/A   Clear
5:35 AM 28.4 °F - 24.8 °F 86% 29.98 in 3.0 mi Calm Calm - N/A   Clear
5:55 AM 28.4 °F - 24.8 °F 86% 29.97 in 3.0 mi Calm Calm - N/A   Clear
6:15 AM 26.6 °F - 24.8 °F 93% 29.97 in 3.0 mi Calm Calm - N/A   Clear
6:35 AM 28.4 °F - 24.8 °F 86% 29.96 in 1.5 mi Calm Calm - N/A   Clear
6:55 AM 26.6 °F 22.6 °F 24.8 °F 93% 29.98 in 2.0 mi WSW 3.5 mph - N/A   Clear
7:15 AM 26.6 °F 22.6 °F 24.8 °F 93% 29.98 in 2.5 mi West 3.5 mph - N/A   Clear
7:35 AM 28.4 °F 24.6 °F 24.8 °F 86% 29.98 in 3.0 mi WNW 3.5 mph - N/A   Clear
7:55 AM 28.4 °F 23.3 °F 26.6 °F 93% 29.99 in 3.0 mi WNW 4.6 mph - N/A   Clear
8:15 AM 30.2 °F - 26.6 °F 86% 29.98 in 3.0 mi Calm Calm - N/A   Clear
8:35 AM 30.2 °F - 26.6 °F 86% 29.98 in 3.0 mi Calm Calm - N/A   Clear
8:55 AM 30.2 °F - 28.4 °F 93% 29.97 in 3.0 mi Calm Calm - N/A   Clear
9:15 AM 32.0 °F - 28.4 °F 87% 29.97 in 3.0 mi Calm Calm - N/A   Clear
9:35 AM 32.0 °F - 28.4 °F 87% 29.97 in 4.0 mi Calm Calm - N/A   Clear
9:55 AM 33.8 °F - 28.4 °F 81% 29.96 in 5.0 mi Calm Calm - N/A   Scattered Clouds
10:15 AM 35.6 °F 32.8 °F 28.4 °F 75% 29.94 in 6.0 mi ESE 3.5 mph - N/A   Partly Cloudy
10:35 AM 35.6 °F 29.9 °F 30.2 °F 81% 29.92 in 5.0 mi ESE 6.9 mph - N/A   Clear
10:55 AM 37.4 °F - 30.2 °F 75% 29.93 in 6.0 mi Calm Calm - N/A   Clear
11:15 AM 37.4 °F - 28.4 °F 70% 29.94 in 7.0 mi Calm Calm - N/A   Clear
11:35 AM 37.4 °F 33.8 °F 30.2 °F 75% 29.95 in 7.0 mi West 4.6 mph - N/A   Clear
11:55 AM 37.4 °F - 30.2 °F 75% 29.94 in 7.0 mi Calm Calm - N/A   Clear
12:15 PM 39.2 °F - 30.2 °F 70% 29.94 in 7.0 mi Calm Calm - N/A   Clear
12:35 PM 39.2 °F 37.0 °F 30.2 °F 70% 29.92 in 7.0 mi ESE 3.5 mph - N/A   Partly Cloudy
12:55 PM 41.0 °F 39.0 °F 33.8 °F 76% 29.92 in 7.0 mi ESE 3.5 mph - N/A   Clear
1:15 PM 42.8 °F 41.1 °F 32.0 °F 66% 29.91 in 8.0 mi East 3.5 mph - N/A   Clear
1:35 PM 42.8 °F 38.0 °F 33.8 °F 70% 29.90 in 9.0 mi ENE 8.1 mph - N/A   Clear
1:55 PM 42.8 °F 39.3 °F 32.0 °F 66% 29.91 in 9.0 mi ENE 5.8 mph - N/A   Clear
2:15 PM 42.8 °F 38.0 °F 30.2 °F 61% 29.89 in 10.0 mi East 8.1 mph - N/A   Clear
2:35 PM 42.8 °F 35.4 °F 32.0 °F 66% 29.83 in 8.0 mi East 15.0 mph - N/A   Clear
2:55 PM 42.8 °F 39.3 °F 32.0 °F 66% 29.85 in 9.0 mi East 5.8 mph - N/A   Clear
3:15 PM 42.8 °F 38.0 °F 32.0 °F 66% 29.84 in 8.0 mi East 8.1 mph - N/A   Clear
3:35 PM 42.8 °F 37.0 °F 32.0 °F 66% 29.84 in 9.0 mi ESE 10.4 mph - N/A   Clear
3:55 PM 41.0 °F 36.4 °F 30.2 °F 65% 29.84 in 9.0 mi ESE 6.9 mph - N/A   Clear
4:15 PM 41.0 °F 35.8 °F 30.2 °F 65% 29.84 in 9.0 mi ESE 8.1 mph - N/A   Clear
4:35 PM 39.2 °F 31.6 °F 32.0 °F 75% 29.79 in 7.0 mi ESE 12.7 mph - N/A   Clear
4:55 PM 39.2 °F 32.5 °F 32.0 °F 75% 29.80 in 7.0 mi ESE 10.4 mph - N/A   Clear
5:15 PM 39.2 °F 32.0 °F 32.0 °F 75% 29.79 in 6.0 mi ESE 11.5 mph - N/A   Clear
5:35 PM 39.2 °F 32.5 °F 33.8 °F 81% 29.79 in 6.0 mi ESE 10.4 mph - N/A   Clear
5:55 PM 39.2 °F 33.6 °F 33.8 °F 81% 29.80 in 5.0 mi ESE 8.1 mph - N/A   Scattered Clouds
6:15 PM 39.2 °F 34.2 °F 33.8 °F 81% 29.81 in 5.0 mi East 6.9 mph - N/A   Mostly Cloudy
6:35 PM 39.2 °F 35.0 °F 33.8 °F 81% 29.82 in 5.0 mi NE 5.8 mph - N/A   Overcast
6:55 PM 37.4 °F 31.4 °F 32.0 °F 81% 29.81 in 5.0 mi NE 8.1 mph - N/A   Mostly Cloudy
7:15 PM 35.6 °F 28.0 °F 30.2 °F 81% 29.81 in 4.0 mi NE 10.4 mph - N/A   Scattered Clouds
7:35 PM 35.6 °F 28.0 °F 30.2 °F 81% 29.81 in 5.0 mi NE 10.4 mph - N/A   Clear
7:55 PM 35.6 °F 26.6 °F 30.2 °F 81% 29.81 in 5.0 mi NE 13.8 mph - N/A   Clear
8:15 PM 33.8 °F 24.8 °F 30.2 °F 87% 29.80 in 4.0 mi ENE 12.7 mph - N/A   Clear
8:35 PM 33.8 °F 23.9 °F 30.2 °F 87% 29.79 in 3.0 mi NE 15.0 mph - N/A   Clear
8:55 PM 33.8 °F 23.9 °F 30.2 °F 87% 29.79 in 3.0 mi ENE 15.0 mph - N/A   Clear
9:15 PM 33.8 °F 24.3 °F 30.2 °F 87% 29.78 in 3.0 mi ENE 13.8 mph - N/A   Clear
9:35 PM 33.8 °F 24.3 °F 30.2 °F 87% 29.77 in 2.5 mi East 13.8 mph - N/A   Clear
9:55 PM 33.8 °F 24.3 °F 30.2 °F 87% 29.76 in 2.5 mi East 13.8 mph - N/A   Clear
10:15 PM 33.8 °F 25.3 °F 30.2 °F 87% 29.76 in 2.5 mi East 11.5 mph - N/A   Clear
10:35 PM 33.8 °F 25.3 °F 30.2 °F 87% 29.75 in 2.0 mi East 11.5 mph - N/A   Clear
10:55 PM 33.8 °F 25.3 °F 30.2 °F 87% 29.77 in 2.0 mi ENE 11.5 mph - N/A   Scattered Clouds
11:15 PM 33.8 °F 26.4 °F 30.2 °F 87% 29.76 in 1.5 mi ENE 9.2 mph - N/A   Overcast
11:35 PM 33.8 °F 25.8 °F 30.2 °F 87% 29.78 in 0.8 mi NE 10.4 mph - N/A   Overcast
11:55 PM 33.8 °F 24.3 °F 30.2 °F 87% 29.76 in 1.0 mi ENE 13.8 mph - N/A   Overcast